Crane Lake, MN

7:53 PM CDT on October 22, 2019 (GMT -0500)
Crane Lake

Weather History for KCDD - June, 2019

Change the Weather History Date:

Saturday, June 1, 2019

  Actual Average Record
Temperature  
Mean Temperature 48 °F -  
Max Temperature 62 °F 65 °F 80 °F (1997)
Min Temperature 33 °F 42 °F 26 °F (2015)
Degree Days  
Heating Degree Days 18    
Moisture  
Dew Point 35 °F    
Average Humidity 62    
Maximum Humidity 100    
Minimum Humidity 27    
Precipitation  
Precipitation 0.00 in - - ()
Sea Level Pressure  
Sea Level Pressure 29.91 in    
Wind  
Wind Speed 3 mph (NNW)    
Max Wind Speed 15 mph    
Max Gust Speed 26 mph    
Visibility 10 miles    
Events      
Averages and records for this station are not official NWS values.
T = Trace of Precipitation, MM = Missing Value Source: NWS Daily Summary

Daily Weather History Graph

Daily Weather History Graph

Search for Another Location

Airport or City:

Astronomy

Jun. 01, 2019 Rise Set
Actual Time 5:13 AM CDT 9:02 PM CDT
Civil Twilight 4:33 AM CDT 9:42 PM CDT
Nautical Twilight 3:38 AM CDT 10:37 PM CDT
Astronomical Twilight 2:17 AM CDT 12:00 AM CDT
Moon 4:33 AM CDT (6/1) 7:04 PM CDT (6/1)
Length of Visible Light 17h 09m
Length of Day
15h 48m
Waning Crescent, 4% of the Moon is Illuminated
Jun 1
Waning Crescent
Jun 3
New
Jun 10
First Quarter
Jun 17
Full
Jun 25
Last Quarter

Hourly Weather History & Observations

Time (CDT) Temp. Windchill Dew Point Humidity Pressure Visibility Wind Dir Wind Speed Gust Speed Precip Events Conditions
12:49 AM 39.2 °F - 39.2 °F 100% 29.88 in 10.0 mi Calm Calm - N/A   Clear
1:04 AM 39.2 °F - 37.4 °F 93% 29.88 in 10.0 mi Calm Calm - N/A   Clear
1:48 AM 46.4 °F - 41.0 °F 81% 29.89 in 10.0 mi Calm Calm - N/A   Clear
2:08 AM 46.4 °F - 41.0 °F 81% 29.89 in 10.0 mi Calm Calm - N/A   Clear
2:55 AM 44.6 °F 43.1 °F 41.0 °F 87% 29.91 in 10.0 mi North 3.5 mph - N/A   Clear
3:07 AM 42.8 °F - 39.2 °F 87% 29.91 in 10.0 mi Calm Calm - N/A   Clear
3:30 AM 37.4 °F - 37.4 °F 100% 29.91 in 10.0 mi Calm Calm - N/A   Clear
3:47 AM 37.4 °F - 35.6 °F 93% 29.91 in 10.0 mi Calm Calm - N/A   Clear
3:55 AM 37.4 °F - 35.6 °F 93% 29.91 in 10.0 mi Calm Calm - N/A   Clear
4:55 AM 33.8 °F - 33.8 °F 100% 29.91 in 10.0 mi Calm Calm - N/A   Clear
5:48 AM 33.8 °F - 33.8 °F 100% 29.91 in 10.0 mi Calm Calm - N/A   Clear
5:55 AM 33.8 °F - 33.8 °F 100% 29.91 in 10.0 mi Calm Calm - N/A   Clear
6:08 AM 33.8 °F - 33.8 °F 100% 29.91 in 10.0 mi Calm Calm - N/A   Clear
6:55 AM 39.2 °F - 39.2 °F 100% 29.92 in 10.0 mi Calm Calm - N/A   Clear
7:28 AM 46.4 °F - 44.6 °F 93% 29.92 in 10.0 mi Calm Calm - N/A   Clear
7:55 AM 48.2 °F - 44.6 °F 87% 29.91 in 10.0 mi Calm Calm - N/A   Clear
8:55 AM 53.6 °F - 42.8 °F 67% 29.92 in 10.0 mi North 4.6 mph - N/A   Clear
9:28 AM 55.4 °F - 39.2 °F 54% 29.92 in 10.0 mi NNW 6.9 mph - N/A   Clear
9:55 AM 55.4 °F - 39.2 °F 54% 29.91 in 10.0 mi Calm Calm - N/A   Clear
10:55 AM 57.2 °F - 39.2 °F 51% 29.91 in 10.0 mi NW 5.8 mph - N/A   Mostly Cloudy
11:08 AM 57.2 °F - 37.4 °F 48% 29.91 in 10.0 mi NNW 8.1 mph - N/A   Mostly Cloudy
11:48 AM 59.0 °F - 33.8 °F 39% 29.91 in 10.0 mi NW 9.2 mph 18.4 mph N/A   Clear
11:55 AM 59.0 °F - 32.0 °F 36% 29.90 in 10.0 mi NW 10.4 mph 18.4 mph N/A   Clear
12:28 PM 60.8 °F - 33.8 °F 36% 29.90 in 10.0 mi NNW 10.4 mph 16.1 mph N/A   Clear
12:55 PM 60.8 °F - 28.4 °F 29% 29.90 in 10.0 mi North 11.5 mph 18.4 mph N/A   Clear
1:08 PM 60.8 °F - 26.6 °F 27% 29.90 in 10.0 mi NNW 6.9 mph 17.3 mph N/A   Clear
1:55 PM 60.8 °F - 26.6 °F 27% 29.90 in 10.0 mi NNW 10.4 mph 23.0 mph N/A   Clear
2:28 PM 60.8 °F - 28.4 °F 29% 29.91 in 10.0 mi NNW 15.0 mph 24.2 mph N/A   Clear
2:55 PM 60.8 °F - 28.4 °F 29% 29.91 in 10.0 mi NNW 11.5 mph 19.6 mph N/A   Scattered Clouds
3:08 PM 59.0 °F - 30.2 °F 34% 29.91 in 10.0 mi NW 8.1 mph - N/A   Scattered Clouds
3:48 PM 62.6 °F - 32.0 °F 32% 29.91 in 10.0 mi NNW 9.2 mph 18.4 mph N/A   Mostly Cloudy
3:55 PM 60.8 °F - 30.2 °F 31% 29.91 in 10.0 mi North 11.5 mph 18.4 mph N/A   Mostly Cloudy
4:08 PM 59.0 °F - 30.2 °F 34% 29.92 in 10.0 mi NNW 11.5 mph 18.4 mph N/A   Mostly Cloudy
4:55 PM 59.0 °F - 30.2 °F 34% 29.91 in 10.0 mi North 10.4 mph 18.4 mph N/A   Mostly Cloudy
5:28 PM 60.8 °F - 33.8 °F 36% 29.92 in 10.0 mi NNW 10.4 mph 17.3 mph N/A   Mostly Cloudy
5:55 PM 60.8 °F - 33.8 °F 36% 29.91 in 10.0 mi NNW 12.7 mph 17.3 mph N/A   Scattered Clouds
6:28 PM 59.0 °F - 32.0 °F 36% 29.91 in 10.0 mi NNW 13.8 mph 26.5 mph N/A   Scattered Clouds
6:55 PM 59.0 °F - 35.6 °F 42% 29.92 in 10.0 mi NNW 5.8 mph - N/A   Scattered Clouds
7:08 PM 57.2 °F - 35.6 °F 44% 29.92 in 10.0 mi NNW 8.1 mph - N/A   Scattered Clouds
7:55 PM 57.2 °F - 35.6 °F 44% 29.91 in 10.0 mi NNW 6.9 mph - N/A   Scattered Clouds
8:08 PM 57.2 °F - 35.6 °F 44% 29.91 in 10.0 mi NNW 4.6 mph - N/A   Scattered Clouds
8:48 PM 55.4 °F - 33.8 °F 44% 29.92 in 10.0 mi Calm Calm - N/A   Clear
9:08 PM 51.8 °F - 35.6 °F 54% 29.92 in 10.0 mi Calm Calm - N/A   Clear
9:28 PM 46.4 °F - 35.6 °F 66% 29.93 in 10.0 mi Calm Calm - N/A   Clear
9:48 PM 44.6 °F - 35.6 °F 71% 29.94 in 10.0 mi Calm Calm - N/A   Clear
9:55 PM 42.8 °F - 35.6 °F 76% 29.95 in 10.0 mi Calm Calm - N/A   Clear
10:48 PM 41.0 °F - 33.8 °F 76% 29.95 in 10.0 mi Calm Calm - N/A   Clear
11:08 PM 39.2 °F - 33.8 °F 81% 29.96 in 10.0 mi Calm Calm - N/A   Clear
11:55 PM 35.6 °F - 32.0 °F 87% 29.98 in 10.0 mi Calm Calm - N/A   Clear